Lid_Strength_Index
1 3 4 6 12 13 14 11 8 8 8 6 5 7 8 7 9 11 2 1 0 0 -0 -1 -1 -1 -1 -1 -1 -1 -1 -1 -1 -1 -1 -1 -1 -1 -1 -1 -2 -1 -1 -1 -2 -2 -2 -2 -2
5 5 7 9 14 16 15 10 9 7 8 5 5 6 7 8 4 4 3 1 0 -0 -0 -0 -1 -1 -1 -1 -1 -1 -1 -1 -1 -1 -1 -1 -1 -1 -1 -1 -2 -1 -1 -1 -1 -2 -2 -2 -2
4 6 11 12 15 15 14 10 8 7 7 6 7 5 6 7 4 3 1 0 -0 0 -0 -0 -1 -1 -1 -1 -1 -1 -1 -1 -1 -1 -1 -1 -1 -1 -1 -1 -1 -1 -1 -1 -1 -1 -1 -2 -1
8 10 11 14 15 12 10 9 6 7 6 5 5 7 5 3 3 2 1 0 0 0 -0 -1 -1 -1 -1 -1 -1 -1 -1 -1 -1 -1 -1 -1 -1 -1 -1 -1 -1 -2 -1 -1 -1 -1 -1 -1 -1
10 12 15 15 15 12 10 9 7 7 7 6 5 8 6 4 3 1 1 0 1 0 -0 -0 -1 -1 -1 -1 -1 -1 -1 -1 -1 -1 -1 -1 -1 -1 -1 -1 -1 -1 -1 -1 -1 -1 -1 -1 -1
11 13 16 17 14 10 10 8 8 7 7 6 7 7 6 3 3 2 1 1 0 0 -0 -0 -1 -1 -1 -1 -1 -1 -1 -1 -1 -2 -1 -1 -1 -1 -2 -2 -1 -2 -2 -1 -1 -1 -1 -2 -1
11 15 16 16 12 12 10 8 8 7 7 7 5 8 6 3 2 1 1 0 0 -0 -0 -0 -0 -1 -1 -1 -1 -1 -1 -1 -1 -1 -2 -1 -1 -1 -1 -1 -1 -2 -2 -2 -2 -2 -1 -2 -2
10 13 15 16 13 12 10 8 8 7 7 4 4 8 7 4 2 2 1 1 1 0 0 -0 0 0 0 -0 -1 -1 -1 -1 -1 -2 -2 -2 -1 -1 -1 -1 -1 -1 -1 -2 -2 -1 -1 -1 -2
10 13 16 16 13 11 9 10 7 7 6 5 4 5 4 2 2 2 2 2 1 1 0 0 -0 -0 0 0 -1 -1 -1 -1 -1 -1 -1 -1 0 -0 -1 -1 -1 -1 -1 -1 -1 -1 -1 -2 -2
11 14 13 11 11 10 10 9 9 8 7 6 5 4 3 2 3 3 3 3 3 2 1 0 0 0 0 -0 -0 0 -0 -0 -0 0 0 0 0 0 -1 -1 -1 -1 -1 -1 -1 -1 -1 -1 0
12 12 10 9 9 9 9 8 8 9 9 7 7 5 4 3 3 3 3 3 3 2 1 1 0 0 0 0 0 0 0 0 0 0 0 1 0 0 -0 0 -0 0 -1 0 -1 -0 -0 0 0
10 9 9 8 8 10 10 8 8 9 7 4 4 4 4 4 4 4 3 3 2 2 1 1 0 0 1 0 0 0 0 0 0 0 0 0 0 1 0 -0 -0 0 0 0 0 0 0 0 -0
11 9 8 7 8 9 8 9 8 8 5 4 4 4 5 6 5 3 3 2 2 2 1 2 1 0 1 0 0 0 0 0 -0 0 -0 -0 0 0 1 0 0 0 0 0 0 0 0 0 0
9 8 8 8 9 9 10 9 9 7 5 5 5 5 5 5 4 3 3 3 2 2 1 2 2 1 1 0 0 0 0 0 0 0 -0 -0 -0 0 0 1 1 1 1 1 1 1 0 0 0
8 9 8 9 9 9 8 9 9 7 5 6 5 5 5 5 4 4 3 4 4 3 1 1 1 2 1 0 1 1 0 0 0 0 1 0 1 0 0 1 1 1 1 2 2 2 1 2 1
9 11 12 9 8 7 9 11 8 7 8 6 6 6 5 4 4 3 3 3 3 1 2 1 1 1 0 0 1 1 2 1 1 1 0 -0 0 0 0 0 1 1 1 2 2 2 2 2 2
12 13 12 10 8 8 9 10 8 8 8 8 6 5 5 5 4 3 4 5 3 2 2 1 1 1 1 0 0 1 0 1 1 0 0 -0 -0 -0 0 0 1 1 1 1 2 3 2 2 2
13 13 12 12 9 10 10 11 9 8 9 8 8 5 5 5 5 3 3 3 2 1 1 1 1 1 1 0 1 1 1 1 1 1 0 0 -0 -0 0 0 1 1 1 2 2 2 2 1 1
10 11 11 9 8 10 10 11 9 8 9 9 9 6 6 6 5 5 3 2 2 4 3 2 2 1 1 1 2 2 2 2 2 1 1 1 0 0 0 1 1 1 1 1 2 2 2 3 2
10 11 11 10 8 10 10 10 10 9 9 9 8 6 6 6 6 6 5 4 4 3 2 2 2 1 1 1 1 1 2 1 1 1 1 1 0 0 0 1 1 1 1 2 3 2 2 2 2
10 11 11 11 9 9 10 10 11 9 8 6 7 6 5 6 5 6 5 4 3 3 3 5 4 3 2 1 2 1 1 1 2 2 2 1 0 0 0 1 1 1 2 2 2 3 3 3 3
12 9 9 9 11 14 11 14 12 10 9 8 7 7 6 6 5 5 4 4 3 3 3 4 4 4 4 4 3 3 3 3 2 2 2 1 1 1 0 1 1 4 4 4 2 1 2 3 3
10 8 10 10 12 14 13 14 14 10 12 10 8 7 6 6 5 5 4 4 3 5 6 5 5 4 4 3 5 5 4 3 2 2 2 2 2 2 2 1 4 3 3 2 2 2 1 1 2
8 9 11 12 14 16 14 14 15 14 12 10 8 7 6 6 7 5 4 3 4 5 5 4 4 4 4 4 3 3 4 5 4 4 3 3 2 2 2 1 3 2 1 0 1 0 1 1 2
9 13 16 17 17 17 13 14 15 11 9 9 9 8 7 6 7 7 5 4 3 3 3 3 4 5 4 4 4 4 4 4 4 4 3 3 3 2 3 2 2 2 3 3 2 1 2 1 1
11 12 16 20 20 18 13 16 14 9 8 7 7 7 7 7 6 6 5 5 5 4 3 2 3 3 3 3 4 4 4 3 3 3 2 2 1 1 1 2 3 2 1 2 3 3 3 1 1
11 13 11 15 16 18 16 14 11 9 9 8 7 7 7 7 6 6 6 6 6 6 6 5 5 5 5 4 2 2 2 2 1 1 1 1 1 0 0 0 2 2 2 2 2 2 3 1 1
10 9 15 15 21 22 18 17 16 13 11 9 9 8 7 6 6 6 5 5 6 6 6 6 6 6 6 5 4 3 4 3 2 2 1 1 1 1 1 1 1 1 3 3 4 4 3 1 1
13 13 13 14 16 20 21 18 11 11 10 10 9 7 7 6 5 5 5 4 5 6 6 7 7 6 6 6 5 4 5 4 4 4 3 2 2 1 1 1 1 1 1 1 4 5 3 2 2
10 12 13 17 18 16 17 17 9 9 9 8 8 7 6 5 5 4 5 5 5 6 6 7 7 7 7 6 6 6 5 5 5 5 4 3 2 2 1 1 1 1 1 1 2 3 3 3 2